CZ-6A DEB, 54622

Orbit data source: Space-Track

CZ-6A DEB, 54622 is space debris in SSO originally from a launch on Fri, 11 Nov 2022 UTC launched from the Taiyaun Space Center, China (TSC). Debris objects in space refer to the collection of defunct objects orbiting the Earth. Examples of debris include non-operational satellites, rocket bodies, and fragments generated from explosions, collisions, or faulty payload assembly.

Loading next visibility...
Identifier
54622, 2022-151NY
Orbit
SSO
Country
Flag of CNCN / PRC
Related business
Manufacturer
SAST
Mission
Spacecraft
Bus & Motor
Unknown
Mass
Unknown
Launch date (UTC)
2022-11-11 (3 years ago)
Launch vehicle
Unknown
Launch site
Taiyaun Space Center, China (TSC)
Object type
Payload
Rocket body
Debris
Shape & HBR
Unknown shape, 0.1 m
Radar Cross Section
Small (<0.1 m²)

Expand to show TLE details & history
Last TLE update: 11 hours ago

TLE from 11 hours ago
0 CZ-6A DEB
1 54622U 22151NY  25353.22776094  .00002379  00000-0  11687-2 0  9991
2 54622  98.8096 354.5960 0042487 111.8214 248.7489 14.18158718158747
Epoch: 2025-12-19T05:27Z
TLE epoch observation values (Epoch: 2025-12-19T05:27:58.545Z)
Latitude
Longitude
-175.46987°
Altitude
845.713 km
Speed
7.424 km/s
True Right ascension
23h 38m 23s
True Declination
0° 00' 00"
Sunlit
Object was in daylight at epoch
Visualization orbit readout
Latitude
Unknown
Longitude
Unknown
Altitude
Unknown
Speed
Unknown
Apparent Right ascension
Unknown
Apparent Declination
Unknown
Sunlit
N/A
Visualization observer readout
Local Sidereal Time
15:11:48
Azimuth
Unknown
Elevation
Unknown
Doppler factor
Unknown
Orbital elements
Apogee altitude
859.372 km
Perigee altitude
798.132 km
Semi-major axis
7,206.889 km
Eccentricity
0.00425
Inclination
98.8096°
RAAN
354.596°
Arg. of periapsis
111.8214°
True anomaly
248.29602°
Mean anomaly
248.7489°
Eccentric anomaly
248.52237°
Mean motion
3.54749 °/min
Orbital period
101.48 mins
BSTAR
0.0011687
Loading maneuver chart data...
Computing Atmospheric mass density...
Loading historical data...
Loading historical data...
Loading historical data...
Loading historical data...
Loading historical data...
Loading historical data...
Loading historical data...

Documentation

Showing up to 5 results
|